This demonstration page uses our WeatherBlox Daily Observations layout. Learn more.

39.92423, -83.80882

Hourly Observations for April 12, 2019

Temp ( °F °C ) Dew Point ( °F °C ) Humidity (%) Winds ( mph kmh ) Pressure ( in mb ) Visibility ( mi km ) Precip ( " mm )
12:56 am 00:56 Clear 71 21.7 49 9.4 46 46 S 9 15 29.74 1007 10 16.0934 0 0
1:56 am 01:56 Cloudy 70 21.1 50 10 49 49 S 15 24 29.72 1007 10 16.0934 0 0
2:56 am 02:56 Clear 69 20.6 51 10.6 53 53 S 15 24 29.71 1006 10 16.0934 0 0
3:56 am 03:56 Clear 68 20 51 10.6 55 55 SSE 16 26 29.7 1006 10 16.0934 0 0
4:56 am 04:56 Mostly Clear 67 19.4 51 10.6 57 57 SSE 18 30 29.69 1006 10 16.0934 0 0
5:56 am 05:56 Clear 67 19.4 52 11.1 59 59 SSE 16 26 29.69 1006 10 16.0934 0 0
6:56 am 06:56 Cloudy with Light Rain 66 18.9 54 12.2 65 65 S 21 33 29.7 1006 10 16.0934 0 0.0254
7:56 am 07:56 Cloudy 67 19.4 54 12.2 63 63 S 14 22 29.72 1006 10 16.0934 0 0.0254
8:28 am 08:28 Cloudy with Rain 64 18 55 13 73 73 WNW 31 50 29.78 1008 3 4.82802 0.02 0.508
8:41 am 08:41 Cloudy with Light Rain 57 14 55 13 94 94 WNW 18 30 29.82 1010 10 16.0934 0.03 0.762
8:56 am 08:56 Cloudy with Rain 57 13.9 55 12.8 93 93 W 12 19 29.82 1010 10 16.0934 0.03 0.762
9:56 am 09:56 Mostly Cloudy 57 13.9 54 12.2 90 90 S 7 11 29.81 1010 10 16.0934 0.02 0.508
10:56 am 10:56 Mostly Cloudy 60 15.6 55 12.8 84 84 SSW 14 22 29.82 1010 10 16.0934 0 0
11:03 am 11:03 Mostly Cloudy 61 16 55 13 83 83 SW 21 33 29.83 1010 10 16.0934 0 0
11:33 am 11:33 Cloudy 63 17 54 12 73 73 SSW 20 31 29.82 1010 10 16.0934 0 0
11:40 am 11:40 Cloudy 61 16 54 12 77 77 SSW 25 41 29.83 1010 10 16.0934 0 0
11:56 am 11:56 Mostly Cloudy 61 16.1 54 12.2 78 78 SW 21 33 29.83 1010 10 16.0934 0 0
12:03 pm 12:03 Partly Cloudy 63 17 54 12 73 73 SW 18 30 29.82 1010 10 16.0934 0 0
12:56 pm 12:56 Mostly Sunny 62 16.7 52 11.1 70 70 SW 22 35 29.84 1011 10 16.0934 0 0
1:56 pm 13:56 Sunny 62 16.7 48 8.9 60 60 SW 24 39 29.85 1011 10 16.0934 0 0
2:56 pm 14:56 Sunny 63 17.2 47 8.3 56 56 SW 22 35 29.85 1011 10 16.0934 0 0
3:56 pm 15:56 Sunny 65 18.3 45 7.2 49 49 WSW 20 31 29.86 1011 10 16.0934 0 0
5:56 pm 17:56 Sunny 67 19.4 39 3.9 36 36 WSW 23 37 29.89 1012 10 16.0934 0 0
6:56 pm 18:56 Sunny 64 17.8 38 3.3 38 38 WSW 16 26 29.92 1013 10 16.0934 0 0
7:56 pm 19:56 Sunny 62 16.7 33 0.6 34 34 WSW 20 31 29.94 1014 10 16.0934 0 0
8:56 pm 20:56 Clear 59 15 35 1.7 41 41 WSW 12 19 29.97 1015 10 16.0934 0 0
9:56 pm 21:56 Clear 57 13.9 36 2.2 45 45 WSW 9 15 29.99 1016 10 16.0934 0 0
10:56 pm 22:56 Clear 55 12.8 35 1.7 47 47 WSW 10 17 30.01 1016 10 16.0934 0 0
11:56 pm 23:56 Clear 54 12.2 35 1.7 49 49 WSW 10 17 30.03 1017 10 16.0934 0 0

Powered by AerisWeather